Regional Weather Roundup
Issued by NWS

Home | Current Version | Previous Version | Graphics & Text | Print | Product List | Glossary On
Versions: 1 2 3 4 5 6 7 8 9 10 11 12 13 14 15 16 17 18 19 20 21 22 23 24 25 26 27
000
ASUS45 KSLC 212110
RWRUT

UTAH REGIONAL WEATHER ROUNDUP
NATIONAL WEATHER SERVICE SALT LAKE CITY UT
300 PM MDT MON AUG 21 2017

UTZ001>011-023>025-212200-

NORTHERN UTAH

CITY           SKY/WX    TMP DP  RH WIND       PRES   REMARKS
BRIGHAM CITY   SUNNY     87  34  15 W3        30.14F
DUGWAY         MOSUNNY   89  33  13 NW5       30.12F
HILL AFB       SUNNY     86  42  21 NW9       30.17F
LOGAN          SUNNY     84  37  18 VRB3      30.16F
OGDEN          SUNNY     87  43  21 VRB7      30.13F
SALT LAKE CITY MOSUNNY   90  41  18 VRB3      30.11F
TOOELE VALLEY  SUNNY     88  46  23 N6        30.13F
WENDOVER       SUNNY     89  34  14 SE10      30.13F
HEBER CITY     SUNNY     86  37  17 NW3       30.19F
WEST JORDAN    SUNNY     86  56  35 CALM      30.15F

$$

UTZ011>015-024>027-212200-

CENTRAL/NORTHEAST UTAH

CITY           SKY/WX    TMP DP  RH WIND       PRES   REMARKS
PROVO AIRPORT  SUNNY     85  49  28 W6        30.14F
MOAB/CANYONLAN MOSUNNY   93  37  14 NW8       30.07F
DELTA          SUNNY     88  37  16 SW6G16    30.16F
PRICE          MOSUNNY   88  35  15 MISG      30.19F
RICHFIELD      SUNNY     84  45  24 SE8       30.19F
ROOSEVELT      SUNNY     88  36  15 S3        30.17F
VERNAL         SUNNY     88  38  17 CALM      30.16F

$$

UTZ013>016-019>022-027-212200-

SOUTHERN UTAH

CITY           SKY/WX    TMP DP  RH WIND       PRES   REMARKS
BRYCE CANYON   PTSUNNY   74  44  34 NW12      30.36F
CEDAR CITY     PTSUNNY   80  45  28 N6        30.25F
MILFORD        CLOUDY    79  47  32 S12       30.20F
ST GEORGE      CLEAR     90  51  26 W17       30.08F
HANKSVILLE     MOSUNNY   91  36  14 CALM      30.11F
KANAB          MOSUNNY   86  46  25 SE7       30.21F
BLANDING       SUNNY     83  45  26 SW3       30.28F

$$

REGIONAL REPORTS     COLORADO/ARIZONA

CITY           SKY/WX    TMP DP  RH WIND       PRES   REMARKS
CRAIG, CO      SUNNY     85  24  11 E8        30.23F
GRAND JUNCTION SUNNY     90  40  17 W8        30.10F
RIFLE, CO      SUNNY     89  35  14 VRB6      30.14F
MONTROSE, CO   SUNNY     84  42  22 W7        30.19F
CORTEZ, CO     SUNNY     83  47  28 MISG      30.20F
COLORADO CITY    N/A     86  50  28 W16G23    30.23F
PAGE, AZ       CLOUDY    90  44  20 N5        30.11F
GRAND CANYON   MOSUNNY   80  46  30 W7G16     30.31F
KINGMAN, AZ    LGT RAIN  66  60  81 SE25      30.19R
FLAGSTAFF, AZ  MOSUNNY   74  46  36 VRB6      30.34F

$$

REGIONAL REPORTS    NEVADA/IDAHO/WYOMING

CITY           SKY/WX    TMP DP  RH WIND       PRES   REMARKS
LAS VEGAS, NV  PTSUNNY   89  55  31 VRB5      30.07F
ELY, NY        SUNNY     86  33  15 VRB7      30.23F
ELKO, NV       SUNNY     89  28  11 MISG      30.17F
POCATELLO, ID  SUNNY     81  33  17 W10       30.19F
BURLEY, ID     SUNNY     79  39  23 NW8       30.16F
FORT BRIDGER,    N/A     85  29  13 W10G20    30.33F
EVANSTON, WY   SUNNY     82  35  18 SW12G20   30.31F
ROCK SPRINGS,  SUNNY     83  29  14 W9        30.27F
KEMMERER, WY     N/A     79  28  15 NW12G20   30.33F

$$




USA.gov is the U.S. government's official web portal to all federal, state and local government web resources and services.